Brownsville, TX

6:31 PM CDT on May 24, 2018 (GMT -0500)
Brownsville-South Padre I International

Weather History for KBRO - August, 2013

Change the Weather History Date:

Saturday, August 3, 2013

  Actual Average Record
Temperature  
Mean Temperature 88 °F 86 °F  
Max Temperature 97 °F 95 °F 102 °F (1915)
Min Temperature 78 °F 76 °F 70 °F (1901)
Degree Days  
Heating Degree Days 0 0  
Month to date heating degree days 0 0  
Since 1 June heating degree days 0 0  
Since 1 July heating degree days 0 0  
Cooling Degree Days 23 21  
Month to date cooling degree days 67 63  
Year to date cooling degree days 2444 2341  
Since 1 June cooling degree days 1322 1248  
Growing Degree Days 38 (Base 50)    
Moisture  
Dew Point 75 °F    
Average Humidity 71    
Maximum Humidity 97    
Minimum Humidity 45    
Precipitation  
Precipitation 0.00 in 0.06 in 1.42 in (1971)
Month to date precipitation 0.00 0.17  
Year to date precipitation 8.58 12.54  
Sea Level Pressure  
Sea Level Pressure 29.97 in    
Wind  
Wind Speed 10 mph (SE)    
Max Wind Speed 21 mph    
Max Gust Speed 29 mph    
Visibility 10 miles    
Events      
T = Trace of Precipitation, MM = Missing Value Source: NWS Daily Summary

Daily Weather History Graph

Daily Weather History Graph

Search for Another Location

Airport or City:

Astronomy

Aug. 03, 2013 Rise Set
Actual Time 6:56 AM CDT 8:14 PM CDT
Civil Twilight 6:32 AM CDT 8:39 PM CDT
Nautical Twilight 6:02 AM CDT 9:08 PM CDT
Astronomical Twilight 5:32 AM CDT 9:38 PM CDT
Moon 4:11 AM CDT (8/3) 5:54 PM CDT (8/3)
Length of Visible Light 14h 06m
Length of Day
13h 17m
Waning Crescent, 9% of the Moon is Illuminated
Aug 3
Waning Crescent
Aug 6
New
Aug 14
First Quarter
Aug 20
Full
Aug 28
Last Quarter

Hourly Weather History & Observations

Time (CDT) Temp. Heat Index Dew Point Humidity Pressure Visibility Wind Dir Wind Speed Gust Speed Precip Events Conditions
12:53 AM 80.1 °F 85.1 °F 75.0 °F 85% 29.97 in 10.0 mi SE 5.8 mph - N/A   Clear
1:53 AM 79.0 °F - 75.9 °F 90% 29.97 in 10.0 mi SE 4.6 mph - N/A   Clear
2:53 AM 79.0 °F - 75.9 °F 90% 29.96 in 10.0 mi SSE 3.5 mph - N/A   Scattered Clouds
3:53 AM 79.0 °F - 75.9 °F 90% 29.95 in 10.0 mi Calm Calm - N/A   Clear
4:20 AM 80.6 °F 87.1 °F 77.0 °F 89% 29.95 in 10.0 mi ESE 3.5 mph - N/A   Mostly Cloudy
4:46 AM 80.6 °F 87.1 °F 77.0 °F 89% 29.94 in 10.0 mi SSE 4.6 mph - N/A   Scattered Clouds
4:53 AM 79.0 °F - 77.0 °F 94% 29.94 in 10.0 mi SSE 3.5 mph - N/A   Scattered Clouds
5:53 AM 79.0 °F - 77.0 °F 94% 29.94 in 10.0 mi Calm Calm - N/A   Clear
6:53 AM 79.0 °F - 75.9 °F 90% 29.96 in 10.0 mi East 3.5 mph - N/A   Partly Cloudy
7:53 AM 81.0 °F 88.6 °F 78.1 °F 91% 29.98 in 10.0 mi Calm Calm - N/A   Clear
8:53 AM 84.0 °F 93.7 °F 77.0 °F 79% 29.99 in 10.0 mi SSW 5.8 mph - N/A   Clear
9:53 AM 87.1 °F 97.3 °F 75.9 °F 69% 29.98 in 10.0 mi South 8.1 mph 17.3 mph N/A   Partly Cloudy
10:10 AM 89.6 °F 99.8 °F 75.2 °F 62% 29.98 in 10.0 mi South 10.4 mph - N/A   Mostly Cloudy
10:20 AM 89.6 °F 99.8 °F 75.2 °F 62% 29.98 in 10.0 mi SSE 10.4 mph - N/A   Mostly Cloudy
10:53 AM 91.9 °F 103.2 °F 75.0 °F 58% 29.98 in 10.0 mi SSE 11.5 mph 17.3 mph N/A   Partly Cloudy
11:53 AM 91.9 °F 101.3 °F 73.9 °F 55% 29.99 in 10.0 mi SE 6.9 mph - N/A   Scattered Clouds
12:53 PM 91.9 °F 101.3 °F 73.9 °F 55% 29.98 in 10.0 mi SSE 10.4 mph 18.4 mph N/A   Mostly Cloudy
1:53 PM 97.0 °F 105.5 °F 72.0 °F 44% 29.98 in 10.0 mi SE 20.7 mph 25.3 mph N/A   Mostly Cloudy
2:53 PM 96.1 °F 104.9 °F 72.0 °F 46% 29.96 in 10.0 mi SE 15.0 mph 25.3 mph N/A   Scattered Clouds
3:53 PM 95.0 °F 104.5 °F 73.0 °F 49% 29.94 in 10.0 mi ESE 16.1 mph 25.3 mph N/A   Partly Cloudy
4:53 PM 93.9 °F 105.4 °F 75.0 °F 54% 29.94 in 10.0 mi SE 16.1 mph 24.2 mph N/A   Partly Cloudy
5:53 PM 91.9 °F 101.3 °F 73.9 °F 55% 29.94 in 10.0 mi SE 18.4 mph 24.2 mph N/A   Clear
6:53 PM 90.0 °F 97.9 °F 73.0 °F 57% 29.94 in 10.0 mi SE 17.3 mph - N/A   Clear
7:53 PM 87.1 °F 97.3 °F 75.9 °F 69% 29.95 in 10.0 mi ESE 16.1 mph 23.0 mph N/A   Partly Cloudy
8:53 PM 84.9 °F 94.1 °F 75.9 °F 74% 29.96 in 10.0 mi SE 15.0 mph - N/A   Clear
9:53 PM 84.0 °F 93.7 °F 77.0 °F 79% 29.99 in 10.0 mi SE 11.5 mph - N/A   Clear
10:53 PM 84.0 °F 93.7 °F 77.0 °F 79% 30.01 in 10.0 mi SE 12.7 mph - N/A   Clear
11:53 PM 84.0 °F 93.7 °F 77.0 °F 79% 30.02 in 10.0 mi SSE 13.8 mph - N/A   Clear